TimeHST,TemperatureF,Dew PointF,Humidity,Sea Level PressureIn,VisibilityMPH,Wind Direction,Wind SpeedMPH,Gust SpeedMPH,PrecipitationIn,Events,Conditions,WindDirDegrees,DateUTC
12:54 AM,68.0,57.0,68,30.18,10.0,NE,17.3,32.2,N/A,,Partly Cloudy,50,2013-02-27 10:54:00
1:54 AM,66.9,55.0,66,30.17,10.0,ENE,15.0,18.4,N/A,,Clear,60,2013-02-27 11:54:00
2:54 AM,66.9,57.0,70,30.16,10.0,NE,9.2,-,N/A,,Clear,40,2013-02-27 12:54:00
3:54 AM,68.0,59.0,73,30.16,10.0,NE,15.0,23.0,N/A,,Partly Cloudy,50,2013-02-27 13:54:00
4:54 AM,68.0,57.9,70,30.16,10.0,NE,17.3,26.5,0.00,,Scattered Clouds,50,2013-02-27 14:54:00
5:54 AM,68.0,55.9,65,30.17,10.0,NE,12.7,21.9,N/A,,Scattered Clouds,50,2013-02-27 15:54:00
6:54 AM,68.0,55.0,63,30.18,10.0,NE,15.0,20.7,N/A,,Partly Cloudy,50,2013-02-27 16:54:00
7:54 AM,69.1,54.0,58,30.20,10.0,NE,9.2,19.6,N/A,,Partly Cloudy,50,2013-02-27 17:54:00
8:54 AM,72.0,57.0,59,30.22,10.0,ENE,15.0,28.8,N/A,,Partly Cloudy,60,2013-02-27 18:54:00
9:54 AM,75.0,57.0,53,30.22,10.0,ENE,18.4,27.6,N/A,,Clear,60,2013-02-27 19:54:00
10:54 AM,77.0,53.1,43,30.22,10.0,NE,12.7,23.0,N/A,,Clear,50,2013-02-27 20:54:00
11:54 AM,75.0,60.1,60,30.19,10.0,NE,17.3,27.6,N/A,,Clear,50,2013-02-27 21:54:00
12:54 PM,75.0,57.9,55,30.17,10.0,NE,21.9,34.5,N/A,,Clear,50,2013-02-27 22:54:00
1:54 PM,75.0,57.0,53,30.14,10.0,NE,20.7,32.2,N/A,,Scattered Clouds,50,2013-02-27 23:54:00
2:54 PM,75.9,59.0,56,30.12,10.0,NE,20.7,32.2,N/A,,Partly Cloudy,40,2013-02-28 00:54:00
3:54 PM,73.9,57.9,57,30.12,10.0,NE,19.6,32.2,N/A,,Clear,50,2013-02-28 01:54:00
4:54 PM,73.0,59.0,61,30.13,10.0,NE,16.1,31.1,N/A,,Partly Cloudy,50,2013-02-28 02:54:00
5:54 PM,71.1,57.9,63,30.14,10.0,ENE,12.7,24.2,N/A,,Clear,60,2013-02-28 03:54:00
6:54 PM,69.1,59.0,70,30.16,10.0,East,13.8,19.6,N/A,,Clear,80,2013-02-28 04:54:00
7:54 PM,69.1,59.0,70,30.17,10.0,ENE,13.8,23.0,N/A,,Clear,60,2013-02-28 05:54:00
8:54 PM,68.0,57.9,70,30.18,10.0,ENE,15.0,23.0,N/A,,Clear,60,2013-02-28 06:54:00
9:54 PM,69.1,55.9,63,30.19,10.0,NE,15.0,21.9,N/A,,Clear,50,2013-02-28 07:54:00
10:54 PM,68.0,55.9,65,30.19,10.0,NE,12.7,18.4,N/A,,Clear,50,2013-02-28 08:54:00
11:54 PM,68.0,55.9,65,30.17,10.0,ENE,17.3,23.0,N/A,,Clear,60,2013-02-28 09:54:00